Simultaneous Nadir Overpasses (SNOs) Predictions

Prediction of SNOs between METOP-A and NOAA-19 Satellite Orbit:

Table of predicted SNOs for the next 14.0 days since TLE Epoch: 8/26/2013
Index Date (METOP-A) Time (METOP-A) Lat,Lon (METOP-A) SZA (METOP-A ) Date (NOAA-19) Time (NOAA-19) Lat,Lon (NOAA-19) SZA (NOAA-19 ) Distance(km) Time Diff (sec)
1 08/27/2013 23:26:16 74.05,-176.98 64.32 08/27/2013 23:25:07 74.03,-179.16 64.39 66.62 69
2 08/28/2013 00:17:07 -73.58, -10.78 116.11 08/28/2013 00:15:56 -73.57, -10.76 116.11 1.55 71
3 08/28/2013 01:07:47 73.59, 156.56 63.91 08/28/2013 01:07:02 73.58, 156.45 63.91 3.73 45
4 08/28/2013 01:58:29 -73.56, -36.17 116.10 08/28/2013 01:58:00 -73.55, -36.23 116.11 2.54 29
5 08/28/2013 02:49:10 73.52, 131.06 63.87 08/28/2013 02:49:05 73.51, 131.10 63.86 1.58 5
6 08/28/2013 03:39:52 -73.49, -61.67 116.14 08/28/2013 03:40:03 -73.48, -61.59 116.16 2.68 11
7 08/28/2013 04:30:32 73.50, 105.67 63.88 08/28/2013 04:31:09 73.49, 105.63 63.87 1.91 37
8 08/28/2013 05:21:14 -73.47, -87.05 116.14 08/28/2013 05:22:07 -73.46, -87.06 116.15 1.17 53
9 08/28/2013 06:11:57 73.33, 79.95 63.75 08/28/2013 06:13:10 73.32, 80.50 63.71 17.52 73
10 09/07/2013 01:00:37 74.14, 159.64 68.04 09/07/2013 00:59:29 74.11, 157.12 68.10 76.74 68
11 09/07/2013 01:51:30 -73.57, -34.39 112.48 09/07/2013 01:50:15 -73.59, -34.32 112.46 2.89 75
12 09/07/2013 02:42:10 73.57, 132.94 67.54 09/07/2013 02:41:22 73.56, 132.98 67.53 2.10 48
13 09/07/2013 03:32:52 -73.55, -59.78 112.47 09/07/2013 03:32:19 -73.57, -59.79 112.45 1.83 33
14 09/07/2013 04:23:32 73.55, 107.55 67.54 09/07/2013 04:23:26 73.54, 107.50 67.53 2.31 6
15 09/07/2013 05:14:14 -73.53, -85.17 112.47 09/07/2013 05:14:23 -73.55, -85.26 112.45 3.57 9
16 09/07/2013 06:04:55 73.48, 82.05 67.50 09/07/2013 06:05:29 73.47, 82.15 67.48 3.40 34
17 09/07/2013 06:55:37 -73.46,-110.67 112.51 09/07/2013 06:56:26 -73.48,-110.62 112.49 2.67 49
18 09/07/2013 07:46:19 73.36, 56.44 67.42 09/07/2013 07:47:32 73.40, 56.79 67.44 12.01 73
19 09/07/2013 08:37:11 -72.84,-137.37 113.05 09/07/2013 08:38:18 -72.87,-134.75 113.12 85.77 67




NCC Satellite Simultaneous Nadir Overpasses (SNOs) Prediction Service
